This is the latest recevied weather packets stored in our database for station/object FRA001-13. If no packets are shown the sender has not sent any weather packets the latest 1 day(s).
| Time | Temp. | Humidity | Pressure | Rain* | Wind** | Luminosity | Snow |
|---|---|---|---|---|---|---|---|
| 1778162703 | 19.44° C | 55% | 1011 hPa | 0 mm | - | 669 W/m² | - |
| 1778162404 | 20° C | 54% | 1011.1 hPa | 0 mm | - | 679 W/m² | - |
| 1778162104 | 19.44° C | 57% | 1011 hPa | 0 mm | - | 689 W/m² | - |
| 1778161804 | 20° C | 57% | 1011.1 hPa | 0 mm | - | 694 W/m² | - |
| 1778161504 | 20° C | 56% | 1011.1 hPa | 0 mm | - | 707 W/m² | - |
| 1778161204 | 20° C | 55% | 1011.2 hPa | 0 mm | - | 716 W/m² | - |
| 1778160903 | 19.44° C | 60% | 1011.3 hPa | 0 mm | - | 724 W/m² | - |
| 1778160603 | 19.44° C | 56% | 1011.1 hPa | 0 mm | - | 737 W/m² | - |
| 1778160303 | 19.44° C | 60% | 1011.2 hPa | 0 mm | - | 748 W/m² | - |
| 1778160003 | 19.44° C | 61% | 1011.3 hPa | 0 mm | - | 712 W/m² | - |
| 1778159703 | 18.89° C | 58% | 1011.4 hPa | 0 mm | - | 670 W/m² | - |
| 1778159404 | 19.44° C | 56% | 1011.5 hPa | 0 mm | - | 568 W/m² | - |
| 1778159103 | 19.44° C | 59% | 1011.5 hPa | 0 mm | - | 670 W/m² | - |
| 1778158803 | 18.89° C | 59% | 1011.5 hPa | 0 mm | - | 742 W/m² | - |
| 1778158504 | 19.44° C | 59% | 1011.5 hPa | 0 mm | - | 761 W/m² | - |
| 1778158203 | 18.89° C | 59% | 1011.6 hPa | 0 mm | - | 778 W/m² | - |
| 1778157904 | 18.89° C | 59% | 1011.7 hPa | 0 mm | - | 728 W/m² | - |
| 1778157604 | 18.89° C | 59% | 1011.9 hPa | 0 mm | - | 778 W/m² | - |
| 1778157303 | 18.89° C | 60% | 1011.8 hPa | 0 mm | - | 733 W/m² | - |
| 1778157003 | 18.33° C | 62% | 1011.7 hPa | 0 mm | - | 778 W/m² | - |
| 1778156704 | 18.33° C | 63% | 1011.9 hPa | 0 mm | - | 778 W/m² | - |
| 1778156403 | 18.33° C | 61% | 1011.8 hPa | 0 mm | - | 803 W/m² | - |
| 1778156104 | 18.89° C | 59% | 1011.9 hPa | 0 mm | - | 791 W/m² | - |
| 1778155804 | 18.89° C | 63% | 1011.9 hPa | 0 mm | - | 795 W/m² | - |
| 1778155503 | 18.33° C | 60% | 1011.8 hPa | 0 mm | - | 760 W/m² | - |
* Rain latest hour (hover to see other rain measurements)
** Current wind speed in m/s (hover to see current wind gust speed)